Change the Weather History Date:

Tuesday, February 26, 2013

  Actual Average Record
Temperature  
Mean Temperature 38 °F -  
Max Temperature 44 °F 49 °F 48 °F (1999)
Min Temperature 32 °F 30 °F 6 °F (2011)
Degree Days  
Heating Degree Days 27    
Moisture  
Dew Point 26 °F    
Average Humidity 62    
Maximum Humidity 87    
Minimum Humidity 37    
Precipitation  
Precipitation 0.00 in 0.03 in - ()
Sea Level Pressure  
Sea Level Pressure 30.24 in    
Wind  
Wind Speed 8 mph ()    
Max Wind Speed 23 mph    
Max Gust Speed 30 mph    
Visibility 15.0 miles    
Events      
Averages and records for this station are not official NWS values.
T = Trace of Precipitation, MM = Missing Value Source: Averaged Metar Reports

Daily Weather History Graph

Daily Weather History Graph

Search for Another Location

Airport or City:

Trip Planner

Search our weather history database for the weather conditions in past years. The results will help you decide how hot, cold, wet, or windy it might be!

Date:

Astronomy

Feb. 26, 2013 Rise Set
Actual Time 6:46 AM PST 5:36 PM PST
Civil Twilight 6:14 AM PST 6:09 PM PST
Nautical Twilight 5:37 AM PST 6:46 PM PST
Astronomical Twilight 5:00 AM PST 7:23 PM PST
Moon 7:11 PM PST (2/26) 6:42 AM PST (2/26)
Length of Visible Light 11h 55m
Length of Day
10h 50m
Full, 99% of the Moon is Illuminated
Feb 26
Full
Mar 4
Last Quarter
Mar 11
New
Mar 19
First Quarter
Mar 27
Full

Hourly Weather History & Observations

Time (PST) Temp. Windchill Dew Point Humidity Pressure Visibility Wind Dir Wind Speed Gust Speed Precip Events Conditions
12:00 AM 33.8 °F - 30.2 °F 87% 30.18 in 15.0 mi NW 2.3 mph - N/A   Mostly Cloudy
1:00 AM 33.8 °F - 28.4 °F 81% 30.19 in 15.0 mi Calm Calm - N/A   Mostly Cloudy
2:00 AM 33.8 °F - 28.4 °F 81% 30.21 in 15.0 mi Variable 2.3 mph - N/A   Mostly Cloudy
3:00 AM 33.8 °F 30.8 °F 28.4 °F 81% 30.21 in 15.0 mi NNE 3.5 mph - N/A   Mostly Cloudy
4:00 AM 34 °F - 28 °F 69% 30.24 in 15 mi ENE 3.5 mph - -   Mostly Cloudy
4:00 AM 33.8 °F 29.6 °F 28.4 °F 81% 30.24 in 15.0 mi East 4.6 mph - N/A   Mostly Cloudy
5:00 AM 33.8 °F 27.0 °F 28.4 °F 81% 30.25 in 15.0 mi SSE 8.1 mph - N/A   Mostly Cloudy
6:00 AM 32.0 °F 24.8 °F 28.4 °F 87% 30.28 in 15.0 mi South 8.1 mph - N/A   Mostly Cloudy
7:00 AM 32.0 °F 24.2 °F 26.6 °F 80% 30.30 in 15.0 mi South 9.2 mph - N/A   Mostly Cloudy
8:00 AM 33.8 °F 28.6 °F 26.6 °F 75% 30.30 in 15.0 mi SSW 5.8 mph - N/A   Mostly Cloudy
9:00 AM 35.6 °F 28.0 °F 26.6 °F 70% 30.31 in 15.0 mi SSW 10.4 mph - N/A   Mostly Cloudy
10:00 AM 39 °F - 26 °F 48% 30.30 in 15 mi SSE 10.4 mph - -   Scattered Clouds
10:00 AM 39.2 °F 32.0 °F 26.6 °F 61% 30.30 in 15.0 mi SSE 11.5 mph - N/A   Mostly Cloudy
11:00 AM 39.2 °F 31.6 °F 26.6 °F 61% 30.28 in 15.0 mi South 12.7 mph - N/A   Mostly Cloudy
12:00 PM 41.0 °F 33.5 °F 24.8 °F 53% 30.28 in 15.0 mi SSE 13.8 mph - N/A   Mostly Cloudy
1:00 PM 42.8 °F 36.6 °F 24.8 °F 49% 30.26 in 15.0 mi South 11.5 mph - N/A   Overcast
2:00 PM 42.8 °F 36.6 °F 24.8 °F 49% 30.25 in 15.0 mi South 11.5 mph - N/A   Overcast
3:00 PM 42.8 °F 36.6 °F 26.6 °F 53% 30.24 in 15.0 mi South 11.5 mph 20.7 mph N/A   Overcast
4:00 PM 43 °F - 26 °F 37% 30.22 in 15 mi South 18.4 mph - -   Scattered Clouds
4:00 PM 42.8 °F 34.5 °F 24.8 °F 49% 30.22 in 15.0 mi South 18.4 mph 26.5 mph N/A   Mostly Cloudy
5:00 PM 42.8 °F 33.5 °F 24.8 °F 49% 30.22 in 15.0 mi South 23.0 mph - N/A   Overcast
6:00 PM 42.8 °F 34.8 °F 24.8 °F 49% 30.22 in 15.0 mi SSW 17.3 mph - N/A   Overcast
7:00 PM 41.0 °F 33.1 °F 24.8 °F 53% 30.22 in 15.0 mi SSW 15.0 mph - N/A   Overcast
8:00 PM 41.0 °F 32.8 °F 24.8 °F 53% 30.21 in 15.0 mi SSW 16.1 mph 23.0 mph N/A   Overcast
9:00 PM 41.0 °F 32.2 °F 24.8 °F 53% 30.21 in 15.0 mi South 18.4 mph - N/A   Overcast
10:00 PM 42 °F - 25 °F 38% 30.20 in 15 mi SSW 18.4 mph - -   Overcast
10:00 PM 41.0 °F 32.8 °F 24.8 °F 53% 30.20 in 15.0 mi SSW 16.1 mph 29.9 mph N/A   Overcast